{"data":{"norad_id":58384,"epoch":"2026-09-19T06:40:39.004608Z","epoch_age_seconds":249169,"freshness":"STALE","line1":"1 58384U 23178L   26262.27822922  .00004137  00000+0  13354-3 0  9994","line2":"2 58384  53.1561 177.3850 0000779  83.6784 276.4307 15.34387610159597","mean_motion":15.3438761,"eccentricity":7.79e-5,"inclination_deg":53.1561,"raan_deg":177.385,"arg_perigee_deg":83.6784,"mean_anomaly_deg":276.4307,"bstar":0.00013354,"rev_number":15959,"period_min":93.848515890975,"perigee_km":462.20716182253,"apogee_km":463.27297046943,"semimajor_km":6840.877066146,"source":"CELESTRAK","updated_at":"2026-09-21T09:00:33.866893Z"}}